Stations météo

réclame
Mon MeteoGroup
Chieming, Allemagne (10982): Température de l'air & dewpoint: 05.12.2017 01:00:00 - 11.12.2017 01:00:00 (CET)Chieming, Allemagne (10982): Température de l'air 5cm & Température de l'air -5cm: 05.12.2017 01:00:00 - 11.12.2017 01:00:00 (CET)Chieming, Allemagne (10982): Température de l'air -20cm & Température de l'air -100cm: 05.12.2017 01:00:00 - 11.12.2017 01:00:00 (CET)Chieming, Allemagne (10982): Vitesse du vent & gusts: 05.12.2017 01:00:00 - 11.12.2017 01:00:00 (CET)Chieming, Allemagne (10982): Direction du vent: 05.12.2017 01:00:00 - 11.12.2017 01:00:00 (CET)Chieming, Allemagne (10982): reduced air pressure: 05.12.2017 01:00:00 - 11.12.2017 01:00:00 (CET)Chieming, Allemagne (10982): visibility: 05.12.2017 01:00:00 - 11.12.2017 01:00:00 (CET)Chieming, Allemagne (10982): Ensoleillement: 05.12.2017 01:00:00 - 11.12.2017 01:00:00 (CET)Chieming, Allemagne (10982): Quantités de précipitations: 05.12.2017 01:00:00 - 11.12.2017 01:00:00 (CET)
Date & Time tt [°C] td [°C] tt 5cm [°C] tt -5cm [°C] tt -20cm [°C] tt -100cm [°C] ff [km/h] ff [knt] fx [km/h] fx [knt] dd ppp [hPa] vv [km] sd [min] rr [mm]
11.12.2017 01:00:00 2,9 -1,0 1,6 -0,2 1,1 5,8 12 6 16 9 E 991,6 70 0 0,0
11.12.2017 00:00:00 3,1 -1,5 1,4 -0,2 1,1 5,8 10 5 22 12 ENE 992,3 70 0 0,0
10.12.2017 23:00:00 4,2 -1,9 2,9 -0,2 1,1 5,8 14 8 21 11 SE 992,9 70 0 0,0
10.12.2017 22:00:00 3,9 -2,8 1,5 -0,2 1,1 5,8 8 4 13 7 E 994,0 70 0 0,0
10.12.2017 21:00:00 5,0 -3,2 2,6 -0,2 1,1 5,8 11 6 26 14 S 993,8 70 0 0,0
10.12.2017 20:00:00 4,6 -2,2 2,7 -0,3 1,1 5,8 14 8 32 17 SSW 994,0 70 0 0,0
10.12.2017 19:00:00 5,7 -2,9 3,6 -0,3 1,1 5,8 17 9 54 29 SSW 993,4 54 0 0,0
10.12.2017 18:00:00 5,9 -1,7 4,0 -0,3 1,1 5,8 39 21 60 33 SSW 992,1 70 0 0,0
10.12.2017 17:00:00 4,1 -0,9 2,6 -0,3 1,1 5,8 41 22 76 41 SSW 991,9 69 0 0,0
10.12.2017 16:00:00 4,1 -4,0 1,9 -0,4 1,1 5,8 40 21 61 33 SW 990,7 33 0 0,0
10.12.2017 15:00:00 -2,5 -7,2 -2,3 -0,4 1,1 5,8 14 7 21 12 NE 993,1 60 0 0,0
10.12.2017 14:00:00 -3,2 -7,8 -2,7 -0,4 1,1 5,8 15 8 22 12 E 995,0 51 0 0,0
10.12.2017 13:00:00 -3,3 -8,4 -2,5 -0,4 1,1 5,9 15 8 18 10 E 998,0 52 0 0,0
10.12.2017 12:00:00 -2,8 -9,7 -2,2 -0,5 1,1 5,9 6 3 13 7 SSE 1000,3 57 2 0,0
10.12.2017 11:00:00 -3,0 -9,5 -1,5 -0,6 1,1 5,9 6 4 16 9 S 1003,1 37 56 0,0
10.12.2017 10:00:00 -4,8 -9,8 -2,3 -0,8 1,2 5,9 4 2 14 7 S 1006,5 44 53 0,0
10.12.2017 09:00:00 -5,9 -10,8 -4,9 -1,0 1,2 5,9 6 4 14 8 ESE 1009,1 63 28 0,0
10.12.2017 08:00:00 -7,8 -10,8 -8,8 -0,9 1,2 5,9 7 4 13 7 SSE 1011,4 70 0 0,0
10.12.2017 07:00:00 -6,4 -10,6 -8,4 -0,8 1,3 5,9 10 5 14 7 S 1012,2 70 0 0,0
10.12.2017 06:00:00 -7,1 -10,0 -10,0 -0,7 1,3 5,9 3 2 14 8 N 1013,2 70 0 0,0
10.12.2017 05:00:00 -7,1 -9,7 -9,0 -0,5 1,3 5,9 9 5 11 6 E 1014,1 70 0 0,0
10.12.2017 04:00:00 -6,5 -9,2 -9,6 -0,4 1,4 5,9 5 3 8 5 ENE 1015,4 70 0 0,0
10.12.2017 03:00:00 -6,3 -9,1 -7,3 -0,4 1,4 5,9 8 4 16 8 E 1016,4 70 0 0,0
10.12.2017 02:00:00 -6,9 -9,4 -8,6 -0,3 1,4 5,9 9 5 13 7 ENE 1017,2 56 0 0,0
10.12.2017 01:00:00 -5,7 -9,1 -6,7 -0,2 1,5 5,9 13 7 19 10 S 1017,5 49 0 0,0
10.12.2017 00:00:00 -4,7 -9,2 -6,3 -0,1 1,5 5,9 12 6 16 8 S 1018,7 58 0 0,0
09.12.2017 23:00:00 -4,5 -8,9 -7,1 -0,1 1,5 5,9 9 5 28 15 S 1018,8 57 0 0,0
09.12.2017 22:00:00 -1,5 -7,2 -3,5 0,0 1,5 5,9 26 14 46 25 W 1018,5 70 0 0,0
09.12.2017 21:00:00 -0,7 -8,1 -2,5 0,0 1,6 5,9 25 13 44 24 WSW 1018,4 70 0 0,0
09.12.2017 20:00:00 -1,0 -6,8 -3,2 0,1 1,6 6,0 23 12 48 26 WSW 1018,8 70 0 0,0
09.12.2017 19:00:00 -1,1 -7,4 -2,9 0,1 1,6 6,0 32 17 51 28 WSW 1018,7 70 0 0,0
09.12.2017 18:00:00 -1,2 -6,4 -2,9 0,2 1,6 6,0 27 14 47 26 W 1018,4 69 0 0,0
09.12.2017 17:00:00 -0,8 -6,0 -2,6 0,2 1,6 6,0 27 15 46 25 WSW 1018,1 66 0 0,0
09.12.2017 16:00:00 -0,8 -6,5 -2,2 0,3 1,6 6,0 32 18 51 28 WSW 1018,0 54 3 0,0
09.12.2017 15:00:00 -1,1 -6,2 -1,5 0,3 1,6 6,0 27 14 40 22 W 1018,0 60 1 0,0
09.12.2017 14:00:00 -2,1 -4,7 -2,0 0,3 1,6 6,0 23 12 52 28 W 1018,4 32 0 0,0
09.12.2017 13:00:00 -1,2 -6,5 -1,3 0,3 1,7 6,0 35 19 53 29 W 1018,0 31 0 0,0
09.12.2017 12:00:00 -1,5 -5,0 -1,6 0,3 1,7 6,0 34 18 47 26 W 1018,0 24 0 0,0
09.12.2017 11:00:00 -2,4 -3,9 -2,2 0,3 1,7 6,0 27 15 52 28 W 1018,3 3,1 0 0,0
09.12.2017 10:00:00 -1,7 -5,0 -1,5 0,3 1,7 6,0 32 17 51 28 W 1017,6 13 0 0,0
09.12.2017 09:00:00 -1,5 -5,5 -1,8 0,3 1,7 6,0 34 19 52 28 WSW 1017,0 12 0 0,0
09.12.2017 08:00:00 -1,3 -5,9 -1,9 0,3 1,7 6,0 26 14 49 26 W 1016,8 53 0 0,0
09.12.2017 07:00:00 -1,5 -4,3 -2,0 0,3 1,7 6,0 34 18 50 27 W 1016,2 35 0 0,0
09.12.2017 06:00:00 -0,8 -4,0 -1,6 0,4 1,7 6,0 39 21 51 28 W 1014,8 42 0 0,0
09.12.2017 05:00:00 -0,8 -3,5 -1,2 0,4 1,7 6,0 36 20 50 27 W 1014,7 4,8 0 0,0
09.12.2017 04:00:00 -0,9 -1,9 -1,0 0,4 1,8 6,0 23 13 37 20 W 1014,5 3,9 0 0,0
09.12.2017 03:00:00 0,0 -3,2 -0,5 0,4 1,8 6,0 26 14 36 20 W 1014,1 48 0 0,0
09.12.2017 02:00:00 0,5 -3,3 -0,4 0,4 1,8 6,0 24 13 41 22 W 1013,7 65 0 0,0
09.12.2017 01:00:00 0,9 -3,3 0,0 0,4 1,8 6,0 20 11 38 21 WSW 1013,9 70 0 0,0
09.12.2017 00:00:00 0,8 -2,5 -0,3 0,4 1,8 6,1 27 14 44 24 WSW 1013,9 70 0 0,0
08.12.2017 23:00:00 0,9 -2,4 -0,2 0,4 1,8 6,1 22 12 40 22 WSW 1014,6 70 0 0,0
08.12.2017 22:00:00 1,2 -2,5 0,0 0,5 1,9 6,1 23 12 40 21 WSW 1014,8 70 0 0,0
08.12.2017 21:00:00 1,3 -2,0 0,2 0,5 1,9 6,1 24 13 38 20 WSW 1014,9 70 0 0,1
08.12.2017 20:00:00 0,5 -0,3 0,0 0,6 1,9 6,1 17 9 37 20 SW 1015,6 2,8 0 0,0
08.12.2017 19:00:00 0,6 -0,5 0,0 0,7 1,9 6,1 22 12 58 31 W 1015,1 11 0 0,0
08.12.2017 18:00:00 2,7 -0,9 1,1 0,7 1,9 6,1 32 17 51 28 WSW 1013,5 70 0 0,0
08.12.2017 17:00:00 0,7 0,4 0,1 0,7 1,9 6,1 11 6 31 17 S 1014,0 18 0 0,6
08.12.2017 16:00:00 1,0 0,5 0,3 0,9 1,9 6,1 16 8 24 13 SSW 1014,2 9 0 0,0
08.12.2017 15:00:00 0,9 0,9 0,5 0,7 1,9 6,1 15 8 37 20 WSW 1014,2 11 0 0,9
08.12.2017 14:00:00 1,3 0,8 0,5 0,9 1,8 6,1 23 13 32 17 W 1013,8 6 0 1,2
08.12.2017 13:00:00 3,2 2,2 2,6 0,8 1,8 6,1 23 13 35 19 WNW 1012,2 27 0 0,2
08.12.2017 12:00:00 3,2 1,3 2,2 0,3 1,8 6,1 11 6 20 11 SSW 1012,1 20 0 0,1
08.12.2017 11:00:00 2,2 -0,3 1,6 0,3 1,8 6,1 11 6 16 9 SSW 1013,2 33 0 0,0
08.12.2017 10:00:00 2,3 -0,4 1,5 0,3 1,8 6,1 5 3 11 6 E 1013,1 26 0 0,1
08.12.2017 09:00:00 2,1 -1,8 1,1 0,3 1,8 6,1 11 6 14 8 SSW 1014,1 69 0 0,0
08.12.2017 08:00:00 1,9 -2,0 0,7 0,3 1,9 6,1 10 5 13 7 S 1013,6 68 0 0,0
08.12.2017 07:00:00 1,6 -1,9 -0,1 0,3 1,9 6,1 7 4 11 6 SSW 1013,7 59 0 0,0
08.12.2017 06:00:00 0,7 -1,6 -0,1 0,3 1,9 6,1 5 3 11 6 NE 1013,4 67 0 0,0
08.12.2017 05:00:00 1,2 -2,0 0,1 0,2 2,0 6,1 5 3 22 12 SSE 1014,0 70 0 0,0
08.12.2017 04:00:00 3,1 -2,4 1,1 0,2 2,0 6,1 13 7 22 12 WSW 1014,3 70 0 0,0
08.12.2017 03:00:00 0,3 -2,6 -1,1 0,2 2,1 6,1 7 4 12 6 ESE 1014,3 70 0 0,0
08.12.2017 02:00:00 -1,5 -3,7 -3,5 0,3 2,2 6,1 3 2 12 7 E 1015,4 70 0 0,0
08.12.2017 01:00:00 1,5 -2,8 -3,6 0,4 2,3 6,1 3 2 15 8 SSE 1015,6 70 0 0,0
08.12.2017 00:00:00 -0,6 -2,9 -3,8 0,5 2,4 6,1 6 4 15 8 E 1017,7 65 0 0,0
07.12.2017 23:00:00 0,2 -2,7 -1,6 0,6 2,5 6,1 13 7 29 16 SSE 1019,1 60 0 0,0
07.12.2017 22:00:00 -0,1 -1,8 -4,4 0,7 2,6 6,1 4 2 10 6 SSE 1020,4 70 0 0,0
07.12.2017 21:00:00 1,1 -1,5 -3,6 0,8 2,7 6,1 5 3 13 7 SSW 1020,4 70 0 0,0
07.12.2017 20:00:00 -0,2 -1,7 -3,5 0,9 2,9 6,1 4 2 7 4 ENE 1021,3 33 0 0,0
07.12.2017 19:00:00 -0,4 -1,3 -3,2 1,2 3,0 6,2 5 3 8 4 SSE 1021,9 50 0 0,0
07.12.2017 18:00:00 1,9 -0,4 -2,2 1,7 3,2 6,2 5 3 10 6 SE 1021,9 70 0 0,0
07.12.2017 17:00:00 2,7 0,3 -0,8 2,8 3,2 6,2 5 3 11 6 SE 1022,4 62 0 0,0
07.12.2017 16:00:00 4,5 0,9 3,5 4,1 3,0 6,2 5 3 7 4 S 1022,9 63 50 0,0
07.12.2017 15:00:00 7,0 1,2 7,5 4,7 2,7 6,2 3 2 11 6 E 1022,8 53 60 0,0
07.12.2017 14:00:00 6,8 0,7 8,0 4,8 2,3 6,2 9 5 11 6 S 1023,2 26 60 0,0
07.12.2017 13:00:00 7,5 -0,5 9,7 3,8 2,0 6,2 3 2 9 5 ESE 1023,9 49 60 0,0
07.12.2017 12:00:00 5,2 -0,5 7,5 1,6 1,8 6,2 5 3 9 5 ENE 1025,5 35 60 0,0
07.12.2017 11:00:00 3,1 -0,9 5,6 0,3 1,9 6,2 5 3 7 4 E 1026,9 40 60 0,0
07.12.2017 10:00:00 0,0 -1,8 1,2 0,2 1,9 6,2 5 3 8 4 ENE 1027,9 14 60 0,0
07.12.2017 09:00:00 -2,3 -3,4 -2,0 0,2 2,0 6,2 4 2 12 7 ENE 1028,9 13 35 0,0
07.12.2017 08:00:00 -2,2 -2,5 -4,5 0,2 2,0 6,2 4 2 6 4 E 1029,1 19 0 0,0
07.12.2017 07:00:00 -2,9 -3,2 -4,5 0,3 2,1 6,2 7 4 10 5 E 1029,6 8 0 0,0
07.12.2017 06:00:00 -3,1 -3,3 -5,0 0,4 2,1 6,2 6 4 8 5 ENE 1029,9 5 0 0,0
07.12.2017 05:00:00 -2,7 -2,7 -4,4 0,5 2,2 6,2 7 4 9 5 E 1030,3 3,5 0 0,0
07.12.2017 04:00:00 -2,2 -2,2 -3,0 0,5 2,2 6,2 9 5 11 6 E 1030,9 2,8 0 0,0
07.12.2017 03:00:00 -1,4 -1,7 -1,5 0,7 2,3 6,2 10 5 12 7 SE 1031,2 6 0 0,0
07.12.2017 02:00:00 -0,8 -1,4 -0,7 0,9 2,3 6,2 5 3 8 5 SE 1031,6 4,7 0 0,0
07.12.2017 01:00:00 -0,8 -1,3 -0,7 0,9 2,3 6,2 6 3 7 4 ENE 1032,0 3,6 0 0,0
07.12.2017 00:00:00 -0,8 -1,6 -0,7 1,0 2,4 6,2 4 2 8 4 NE 1032,8 4,4 0 0,0
06.12.2017 23:00:00 -0,8 -1,7 -0,7 1,0 2,4 6,2 6 3 8 5 N 1033,6 5 0 0,0
06.12.2017 22:00:00 -0,3 -1,3 -0,2 1,1 2,4 6,2 4 2 9 5 S 1033,7 6 0 0,0
06.12.2017 21:00:00 0,0 -1,1 -0,2 1,1 2,5 6,2 6 3 13 7 W 1034,3 8 0 0,0
06.12.2017 20:00:00 0,0 -1,3 -0,1 1,1 2,5 6,2 5 3 17 9 W 1034,5 9 0 0,0
06.12.2017 19:00:00 0,0 -1,4 -0,1 1,2 2,5 6,2 10 5 17 9 W 1034,7 9 0 0,0
06.12.2017 18:00:00 0,2 -1,3 0,1 1,3 2,6 6,2 11 6 18 10 WNW 1035,0 9 0 0,0
06.12.2017 17:00:00 0,3 -1,3 0,1 1,5 2,6 6,2 8 4 18 10 WSW 1035,1 11 0 0,0
06.12.2017 16:00:00 0,3 -1,3 0,3 1,8 2,6 6,2 13 7 19 10 WNW 1035,2 12 0 0,0
06.12.2017 15:00:00 0,7 -1,4 1,0 2,0 2,5 6,2 10 5 19 10 W 1035,0 13 0 0,0
06.12.2017 14:00:00 1,0 -0,9 1,5 2,1 2,4 6,2 10 5 17 9 W 1035,3 12 0 0,0
06.12.2017 13:00:00 0,9 -1,2 1,8 2,1 2,3 6,2 10 6 20 11 W 1035,9 13 0 0,0
06.12.2017 12:00:00 1,0 -1,2 1,7 1,9 2,2 6,2 12 6 19 11 W 1036,2 15 0 0,0
06.12.2017 11:00:00 1,1 -1,0 1,9 1,6 2,2 6,2 14 8 24 13 W 1036,7 13 0 0,0
06.12.2017 10:00:00 1,2 -1,0 1,4 1,1 2,2 6,2 17 9 25 13 W 1036,8 15 0 0,0
06.12.2017 09:00:00 0,9 -1,4 0,8 0,7 2,2 6,2 8 5 16 9 SSW 1036,6 18 0 0,0
06.12.2017 08:00:00 0,4 -1,2 -0,2 0,6 2,3 6,2 13 7 18 10 SSW 1036,7 12 0 0,0
06.12.2017 07:00:00 1,0 -1,3 0,2 0,7 2,3 6,2 12 7 23 12 SSW 1036,5 19 0 0,0
06.12.2017 06:00:00 1,2 -1,3 0,3 0,9 2,3 6,2 16 8 22 12 SSW 1036,5 18 0 0,0
06.12.2017 05:00:00 1,3 -1,1 0,7 1,0 2,4 6,2 11 6 15 8 SSW 1036,8 20 0 0,0
06.12.2017 04:00:00 1,0 -1,0 0,5 1,0 2,4 6,2 11 6 20 11 SSW 1036,9 19 0 0,0
06.12.2017 03:00:00 1,6 -0,9 0,9 1,1 2,4 6,2 13 7 21 12 SW 1037,1 21 0 0,0
06.12.2017 02:00:00 1,5 -0,6 0,9 1,1 2,5 6,2 11 6 19 11 SW 1037,3 20 0 0,0
06.12.2017 01:00:00 1,2 -0,8 0,6 1,2 2,5 6,3 13 7 19 11 SSW 1037,5 17 0 0,0
06.12.2017 00:00:00 1,6 -1,0 0,9 1,3 2,6 6,3 12 7 31 17 SW 1037,5 24 0 0,0
05.12.2017 23:00:00 2,8 -0,8 1,9 1,3 2,6 6,3 21 11 30 16 WSW 1037,2 30 0 0,0
05.12.2017 22:00:00 3,1 -0,8 2,2 1,3 2,7 6,3 18 10 29 16 WSW 1037,3 30 0 0,0
05.12.2017 21:00:00 3,4 -0,5 2,0 1,1 2,8 6,3 19 10 31 17 WSW 1037,2 33 0 0,0
05.12.2017 20:00:00 3,3 -0,2 1,3 1,4 2,9 6,3 16 9 31 17 WSW 1037,0 28 0 0,0
05.12.2017 19:00:00 3,4 0,2 1,6 1,8 2,9 6,3 20 11 29 16 WSW 1037,1 32 0 0,0
05.12.2017 18:00:00 3,8 0,4 2,6 2,3 2,9 6,3 18 10 30 16 W 1037,1 28 0 0,0
05.12.2017 17:00:00 3,7 0,3 2,9 2,5 2,9 6,3 18 10 33 18 W 1036,8 28 0 0,0
05.12.2017 16:00:00 4,0 0,2 3,2 2,8 2,8 6,3 24 13 37 20 WSW 1036,5 37 0 0,0
05.12.2017 15:00:00 4,2 -0,2 3,9 3,0 2,7 6,3 24 13 36 20 W 1036,7 46 0 0,0
05.12.2017 14:00:00 4,3 -0,8 4,1 3,2 2,5 6,3 24 13 34 18 WSW 1036,6 58 0 0,0
05.12.2017 13:00:00 4,2 -0,4 4,3 3,2 2,3 6,3 21 12 35 19 WSW 1036,8 43 0 0,0
05.12.2017 12:00:00 4,2 -0,5 4,7 2,8 2,1 6,3 23 12 40 22 WSW 1037,0 38 0 0,0
05.12.2017 11:00:00 3,8 -0,3 3,7 2,1 2,0 6,3 22 12 36 20 WSW 1037,5 40 0 0,0
05.12.2017 10:00:00 3,9 0,0 3,4 1,7 1,9 6,3 24 13 44 24 WSW 1037,3 38 0 0,0
05.12.2017 09:00:00 3,5 -0,2 2,3 1,1 1,9 6,3 29 16 43 23 WSW 1036,8 31 0 0,0
05.12.2017 08:00:00 3,2 0,4 1,6 0,9 1,8 6,3 29 16 47 26 WSW 1036,5 23 0 0,0
05.12.2017 07:00:00 2,9 0,8 1,4 0,7 1,8 6,3 26 14 40 22 WSW 1036,0 23 0 0,3
05.12.2017 06:00:00 2,2 1,2 1,2 0,6 1,8 6,4 26 14 41 22 WSW 1036,0 7 0 0,3
05.12.2017 05:00:00 2,1 1,4 1,1 0,6 1,8 6,4 24 13 37 20 WSW 1035,9 9 0 0,1
05.12.2017 04:00:00 1,5 1,2 0,8 0,6 1,8 6,4 20 11 34 19 W 1035,8 7 0 0,4
05.12.2017 03:00:00 1,6 1,3 0,9 0,6 1,8 6,5 22 12 37 20 W 1035,6 7 0 0,6
05.12.2017 02:00:00 1,9 1,4 1,0 0,6 1,8 6,5 24 13 39 21 W 1035,0 4,6 0 0,3
05.12.2017 01:00:00 2,2 1,6 1,2 0,6 1,9 6,5 24 13 37 20 W 1034,5 9 0 0,7

tt = Température de l'air
td = dewpoint
tt 5cm = Température de l'air 5cm
tt -5cm = Température de l'air -5cm
tt -20cm = Température de l'air -20cm
tt -100cm = Température de l'air -100cm
ff = Vitesse du vent
fx = gusts
dd = Direction du vent
ppp = reduced air pressure
vv = visibility
sd = Ensoleillement
rr = Quantités de précipitations

stations d'obs. à proximité